Year,Month,Day,Hour,Minute,Value (Times are PST for temperature in C)
2021,08,11,00,00,19.30
2021,08,11,00,01,19.30
2021,08,11,00,02,19.30
2021,08,11,00,03,19.30
2021,08,11,00,04,19.30
2021,08,11,00,05,19.30
2021,08,11,00,06,19.30
2021,08,11,00,07,19.30
2021,08,11,00,08,19.30
2021,08,11,00,09,19.20
2021,08,11,00,10,19.20
2021,08,11,00,11,19.20
2021,08,11,00,12,19.20
2021,08,11,00,13,19.20
2021,08,11,00,14,19.20
2021,08,11,00,15,19.20
2021,08,11,00,16,19.20
2021,08,11,00,17,19.20
2021,08,11,00,18,19.20
2021,08,11,00,19,19.20
2021,08,11,00,20,19.20
2021,08,11,00,21,19.20
2021,08,11,00,22,19.20
2021,08,11,00,23,19.20
2021,08,11,00,24,19.20
2021,08,11,00,25,19.20
2021,08,11,00,26,19.10
2021,08,11,00,27,19.10
2021,08,11,00,28,19.10
2021,08,11,00,29,19.10
2021,08,11,00,30,19.10
2021,08,11,00,31,19.10
2021,08,11,00,32,19.10
2021,08,11,00,33,19.10
2021,08,11,00,34,19.00
2021,08,11,00,35,19.00
2021,08,11,00,36,19.00
2021,08,11,00,37,19.00
2021,08,11,00,38,18.90
2021,08,11,00,39,18.90
2021,08,11,00,40,18.90
2021,08,11,00,41,18.90
2021,08,11,00,42,18.90
2021,08,11,00,43,18.90
2021,08,11,00,44,18.90
2021,08,11,00,45,18.90
2021,08,11,00,46,18.90
2021,08,11,00,47,18.90
2021,08,11,00,48,18.90
2021,08,11,00,49,18.80
2021,08,11,00,50,18.80
2021,08,11,00,51,18.80
2021,08,11,00,52,18.80
2021,08,11,00,53,18.80
2021,08,11,00,54,18.80
2021,08,11,00,55,18.80
2021,08,11,00,56,18.80
2021,08,11,00,57,18.80
2021,08,11,00,58,18.80
2021,08,11,00,59,18.80
2021,08,11,01,00,18.80
2021,08,11,01,01,18.80
2021,08,11,01,02,18.80
2021,08,11,01,03,18.80
2021,08,11,01,04,18.80
2021,08,11,01,05,18.80
2021,08,11,01,06,18.80
2021,08,11,01,07,18.80
2021,08,11,01,08,18.80
2021,08,11,01,09,18.80
2021,08,11,01,10,18.80
2021,08,11,01,11,18.80
2021,08,11,01,12,18.80
2021,08,11,01,13,18.80
2021,08,11,01,14,18.70
2021,08,11,01,15,18.70
2021,08,11,01,16,18.70
2021,08,11,01,17,18.70
2021,08,11,01,18,18.70
2021,08,11,01,19,18.70
2021,08,11,01,20,18.70
2021,08,11,01,21,18.70
2021,08,11,01,22,18.70
2021,08,11,01,23,18.70
2021,08,11,01,24,18.70
2021,08,11,01,25,18.70
2021,08,11,01,26,18.60
2021,08,11,01,27,18.60
2021,08,11,01,28,18.60
2021,08,11,01,29,18.60
2021,08,11,01,30,18.60
2021,08,11,01,31,18.60
2021,08,11,01,32,18.60
2021,08,11,01,33,18.60
2021,08,11,01,34,18.60
2021,08,11,01,35,18.60
2021,08,11,01,36,18.60
2021,08,11,01,37,18.60
2021,08,11,01,38,18.60
2021,08,11,01,39,18.60
2021,08,11,01,40,18.60
2021,08,11,01,41,18.60
2021,08,11,01,42,18.60
2021,08,11,01,43,18.60
2021,08,11,01,44,18.60
2021,08,11,01,45,18.60
2021,08,11,01,46,18.60
2021,08,11,01,47,18.60
2021,08,11,01,48,18.60
2021,08,11,01,49,18.60
2021,08,11,01,50,18.60
2021,08,11,01,51,18.60
2021,08,11,01,52,18.60
2021,08,11,01,53,18.60
2021,08,11,01,54,18.50
2021,08,11,01,55,18.50
2021,08,11,01,56,18.50
2021,08,11,01,57,18.50
2021,08,11,01,58,18.50
2021,08,11,01,59,18.50
2021,08,11,02,00,18.50
2021,08,11,02,01,18.50
2021,08,11,02,02,18.50
2021,08,11,02,03,18.50
2021,08,11,02,04,18.50
2021,08,11,02,05,18.50
2021,08,11,02,06,18.40
2021,08,11,02,07,18.40
2021,08,11,02,08,18.40
2021,08,11,02,09,18.40
2021,08,11,02,10,18.40
2021,08,11,02,11,18.40
2021,08,11,02,12,18.40
2021,08,11,02,13,18.40
2021,08,11,02,14,18.40
2021,08,11,02,15,18.40
2021,08,11,02,16,18.40
2021,08,11,02,17,18.40
2021,08,11,02,18,18.40
2021,08,11,02,19,18.40
2021,08,11,02,20,18.40
2021,08,11,02,21,18.40
2021,08,11,02,22,18.40
2021,08,11,02,23,18.40
2021,08,11,02,24,18.30
2021,08,11,02,25,18.30
2021,08,11,02,26,18.30
2021,08,11,02,27,18.30
2021,08,11,02,28,18.30
2021,08,11,02,29,18.30
2021,08,11,02,30,18.30
2021,08,11,02,31,18.30
2021,08,11,02,32,18.30
2021,08,11,02,33,18.30
2021,08,11,02,34,18.20
2021,08,11,02,35,18.20
2021,08,11,02,36,18.20
2021,08,11,02,37,18.20
2021,08,11,02,38,18.20
2021,08,11,02,39,18.20
2021,08,11,02,40,18.20
2021,08,11,02,41,18.20
2021,08,11,02,42,18.20
2021,08,11,02,43,18.20
2021,08,11,02,44,18.20
2021,08,11,02,45,18.20
2021,08,11,02,46,18.20
2021,08,11,02,47,18.20
2021,08,11,02,48,18.10
2021,08,11,02,49,18.10
2021,08,11,02,50,18.10
2021,08,11,02,51,18.10
2021,08,11,02,52,18.10
2021,08,11,02,53,18.10
2021,08,11,02,54,18.10
2021,08,11,02,55,18.10
2021,08,11,02,56,18.10
2021,08,11,02,57,18.00
2021,08,11,02,58,18.00
2021,08,11,02,59,18.00
2021,08,11,03,00,18.00
2021,08,11,03,01,17.90
2021,08,11,03,02,17.90
2021,08,11,03,03,17.90
2021,08,11,03,04,17.90
2021,08,11,03,05,17.90
2021,08,11,03,06,17.80
2021,08,11,03,07,17.80
2021,08,11,03,08,17.80
2021,08,11,03,09,17.80
2021,08,11,03,10,17.80
2021,08,11,03,11,17.80
2021,08,11,03,12,17.80
2021,08,11,03,13,17.80
2021,08,11,03,14,17.80
2021,08,11,03,15,17.80
2021,08,11,03,16,17.80
2021,08,11,03,17,17.80
2021,08,11,03,18,17.80
2021,08,11,03,19,17.80
2021,08,11,03,20,17.80
2021,08,11,03,21,17.80
2021,08,11,03,22,17.80
2021,08,11,03,23,17.80
2021,08,11,03,24,17.80
2021,08,11,03,25,17.80
2021,08,11,03,26,17.80
2021,08,11,03,27,17.80
2021,08,11,03,28,17.80
2021,08,11,03,29,17.80
2021,08,11,03,30,17.80
2021,08,11,03,31,17.80
2021,08,11,03,32,17.80
2021,08,11,03,33,17.80
2021,08,11,03,34,17.80
2021,08,11,03,35,17.80
2021,08,11,03,36,17.70
2021,08,11,03,37,17.70
2021,08,11,03,38,17.70
2021,08,11,03,39,17.70
2021,08,11,03,40,17.70
2021,08,11,03,41,17.70
2021,08,11,03,42,17.60
2021,08,11,03,43,17.60
2021,08,11,03,44,17.60
2021,08,11,03,45,17.60
2021,08,11,03,46,17.60
2021,08,11,03,47,17.60
2021,08,11,03,48,17.60
2021,08,11,03,49,17.60
2021,08,11,03,50,17.60
2021,08,11,03,51,17.50
2021,08,11,03,52,17.50
2021,08,11,03,53,17.50
2021,08,11,03,54,17.50
2021,08,11,03,55,17.50
2021,08,11,03,56,17.50
2021,08,11,03,57,17.50
2021,08,11,03,58,17.50
2021,08,11,03,59,17.50
2021,08,11,04,00,17.50
2021,08,11,04,01,17.50
2021,08,11,04,02,17.40
2021,08,11,04,03,17.40
2021,08,11,04,04,17.40
2021,08,11,04,05,17.40
2021,08,11,04,06,17.40
2021,08,11,04,07,17.40
2021,08,11,04,08,17.40
2021,08,11,04,09,17.40
2021,08,11,04,10,17.30
2021,08,11,04,11,17.30
2021,08,11,04,12,17.30
2021,08,11,04,13,17.30
2021,08,11,04,14,17.30
2021,08,11,04,15,17.30
2021,08,11,04,16,17.30
2021,08,11,04,17,17.30
2021,08,11,04,18,17.30
2021,08,11,04,19,17.30
2021,08,11,04,20,17.30
2021,08,11,04,21,17.30
2021,08,11,04,22,17.30
2021,08,11,04,23,17.30
2021,08,11,04,24,17.30
2021,08,11,04,25,17.30
2021,08,11,04,26,17.30
2021,08,11,04,27,17.30
2021,08,11,04,28,17.30
2021,08,11,04,29,17.30
2021,08,11,04,30,17.30
2021,08,11,04,31,17.30
2021,08,11,04,32,17.30
2021,08,11,04,33,17.30
2021,08,11,04,34,17.30
2021,08,11,04,35,17.30
2021,08,11,04,36,17.30
2021,08,11,04,37,17.30
2021,08,11,04,38,17.30
2021,08,11,04,39,17.30
2021,08,11,04,40,17.30
2021,08,11,04,41,17.30
2021,08,11,04,42,17.30
2021,08,11,04,43,17.20
2021,08,11,04,44,17.30
2021,08,11,04,45,17.20
2021,08,11,04,46,17.20
2021,08,11,04,47,17.20
2021,08,11,04,48,17.20
2021,08,11,04,49,17.20
2021,08,11,04,50,17.20
2021,08,11,04,51,17.20
2021,08,11,04,52,17.10
2021,08,11,04,53,17.10
2021,08,11,04,54,17.10
2021,08,11,04,55,17.10
2021,08,11,04,56,17.10
2021,08,11,04,57,17.10
2021,08,11,04,58,17.10
2021,08,11,04,59,17.00
2021,08,11,05,00,17.00
2021,08,11,05,01,17.00
2021,08,11,05,02,17.00
2021,08,11,05,03,16.90
2021,08,11,05,04,16.90
2021,08,11,05,05,16.90
2021,08,11,05,06,16.90
2021,08,11,05,07,16.90
2021,08,11,05,08,16.90
2021,08,11,05,09,16.90
2021,08,11,05,10,16.90
2021,08,11,05,11,16.80
2021,08,11,05,12,16.80
2021,08,11,05,13,16.80
2021,08,11,05,14,16.80
2021,08,11,05,15,16.80
2021,08,11,05,16,16.80
2021,08,11,05,17,16.80
2021,08,11,05,18,16.80
2021,08,11,05,19,16.70
2021,08,11,05,20,16.80
2021,08,11,05,21,16.70
2021,08,11,05,22,16.70
2021,08,11,05,23,16.70
2021,08,11,05,24,16.70
2021,08,11,05,25,16.70
2021,08,11,05,26,16.70
2021,08,11,05,27,16.70
2021,08,11,05,28,16.70
2021,08,11,05,29,16.60
2021,08,11,05,30,16.60
2021,08,11,05,31,16.60
2021,08,11,05,32,16.60
2021,08,11,05,33,16.60
2021,08,11,05,34,16.60
2021,08,11,05,35,16.60
2021,08,11,05,36,16.60
2021,08,11,05,37,16.50
2021,08,11,05,38,16.50
2021,08,11,05,39,16.50
2021,08,11,05,40,16.50
2021,08,11,05,41,16.50
2021,08,11,05,42,16.50
2021,08,11,05,43,16.50
2021,08,11,05,44,16.50
2021,08,11,05,45,16.50
2021,08,11,05,46,16.50
2021,08,11,05,47,16.50
2021,08,11,05,48,16.40
2021,08,11,05,49,16.40
2021,08,11,05,50,16.50
2021,08,11,05,51,16.40
2021,08,11,05,52,16.50
2021,08,11,05,53,16.50
2021,08,11,05,54,16.50
2021,08,11,05,55,16.50
2021,08,11,05,56,16.50
2021,08,11,05,57,16.50
2021,08,11,05,58,16.40
2021,08,11,05,59,16.40
2021,08,11,06,00,16.40
2021,08,11,06,01,16.40
2021,08,11,06,02,16.40
2021,08,11,06,03,16.40
2021,08,11,06,04,16.40
2021,08,11,06,05,16.40
2021,08,11,06,06,16.40
2021,08,11,06,07,16.40
2021,08,11,06,08,16.40
2021,08,11,06,09,16.40
2021,08,11,06,10,16.40
2021,08,11,06,11,16.40
2021,08,11,06,12,16.40
2021,08,11,06,13,16.40
2021,08,11,06,14,16.40
2021,08,11,06,15,16.40
2021,08,11,06,16,16.40
2021,08,11,06,17,16.40
2021,08,11,06,18,16.40
2021,08,11,06,19,16.40
2021,08,11,06,20,16.40
2021,08,11,06,21,16.40
2021,08,11,06,22,16.40
2021,08,11,06,23,16.40
2021,08,11,06,24,16.40
2021,08,11,06,25,16.40
2021,08,11,06,26,16.40
2021,08,11,06,27,16.40
2021,08,11,06,28,16.40
2021,08,11,06,29,16.40
2021,08,11,06,30,16.40
2021,08,11,06,31,16.40
2021,08,11,06,32,16.40
2021,08,11,06,33,16.40
2021,08,11,06,34,16.40
2021,08,11,06,35,16.40
2021,08,11,06,36,16.40
2021,08,11,06,37,16.40
2021,08,11,06,38,16.40
2021,08,11,06,39,16.40
2021,08,11,06,40,16.40
2021,08,11,06,41,16.40
2021,08,11,06,42,16.40
2021,08,11,06,43,16.50
2021,08,11,06,44,16.50
2021,08,11,06,45,16.60
2021,08,11,06,46,16.60
2021,08,11,06,47,16.70
2021,08,11,06,48,16.70
2021,08,11,06,49,16.80
2021,08,11,06,50,16.80
2021,08,11,06,51,16.90
2021,08,11,06,52,16.90
2021,08,11,06,53,16.90
2021,08,11,06,54,17.00
2021,08,11,06,55,17.10
2021,08,11,06,56,17.20
2021,08,11,06,57,17.30
2021,08,11,06,58,17.40
2021,08,11,06,59,17.50
2021,08,11,07,00,17.50
2021,08,11,07,01,17.60
2021,08,11,07,02,17.70
2021,08,11,07,03,17.80
2021,08,11,07,04,17.90
2021,08,11,07,05,18.00
2021,08,11,07,06,18.10
2021,08,11,07,07,18.20
2021,08,11,07,08,18.20
2021,08,11,07,09,18.30
2021,08,11,07,10,18.30
2021,08,11,07,11,18.40
2021,08,11,07,12,18.50
2021,08,11,07,13,18.60
2021,08,11,07,14,18.70
2021,08,11,07,15,18.70
2021,08,11,07,16,18.80
2021,08,11,07,17,18.80
2021,08,11,07,18,18.80
2021,08,11,07,19,18.90
2021,08,11,07,20,18.90
2021,08,11,07,21,19.00
2021,08,11,07,22,19.00
2021,08,11,07,23,19.10
2021,08,11,07,24,19.10
2021,08,11,07,25,19.20
2021,08,11,07,26,19.30
2021,08,11,07,27,19.40
2021,08,11,07,28,19.40
2021,08,11,07,29,19.60
2021,08,11,07,30,19.60
2021,08,11,07,31,19.70
2021,08,11,07,32,19.70
2021,08,11,07,33,19.80
2021,08,11,07,34,19.80
2021,08,11,07,35,19.80
2021,08,11,07,36,19.90
2021,08,11,07,37,19.90
2021,08,11,07,38,20.00
2021,08,11,07,39,20.00
2021,08,11,07,40,20.10
2021,08,11,07,41,20.20
2021,08,11,07,42,20.30
2021,08,11,07,43,20.50
2021,08,11,07,44,20.60
2021,08,11,07,45,20.70
2021,08,11,07,46,20.80
2021,08,11,07,47,21.00
2021,08,11,07,48,21.10
2021,08,11,07,49,21.20
2021,08,11,07,50,21.30
2021,08,11,07,51,21.40
2021,08,11,07,52,21.50
2021,08,11,07,53,21.60
2021,08,11,07,54,21.70
2021,08,11,07,55,21.70
2021,08,11,07,56,21.70
2021,08,11,07,57,21.70
2021,08,11,07,58,21.70
2021,08,11,07,59,21.70
2021,08,11,08,00,21.70
2021,08,11,08,01,21.70
2021,08,11,08,02,21.70
2021,08,11,08,03,21.80
2021,08,11,08,04,21.90
2021,08,11,08,05,21.90
2021,08,11,08,06,22.00
2021,08,11,08,07,22.10
2021,08,11,08,08,22.20
2021,08,11,08,09,22.30
2021,08,11,08,10,22.30
2021,08,11,08,11,22.40
2021,08,11,08,12,22.50
2021,08,11,08,13,22.60
2021,08,11,08,14,22.70
2021,08,11,08,15,22.70
2021,08,11,08,16,22.80
2021,08,11,08,17,22.80
2021,08,11,08,18,22.80
2021,08,11,08,19,22.90
2021,08,11,08,20,22.90
2021,08,11,08,21,23.00
2021,08,11,08,22,23.00
2021,08,11,08,23,23.10
2021,08,11,08,24,23.10
2021,08,11,08,25,23.10
2021,08,11,08,26,23.20
2021,08,11,08,27,23.20
2021,08,11,08,28,23.20
2021,08,11,08,29,23.20
2021,08,11,08,30,23.30
2021,08,11,08,31,23.30
2021,08,11,08,32,23.30
2021,08,11,08,33,23.30
2021,08,11,08,34,23.40
2021,08,11,08,35,23.40
2021,08,11,08,36,23.30
2021,08,11,08,37,23.30
2021,08,11,08,38,23.20
2021,08,11,08,39,23.10
2021,08,11,08,40,23.10
2021,08,11,08,41,23.00
2021,08,11,08,42,23.00
2021,08,11,08,43,23.00
2021,08,11,08,44,23.00
2021,08,11,08,45,23.00
2021,08,11,08,46,23.00
2021,08,11,08,47,23.00
2021,08,11,08,48,23.00
2021,08,11,08,49,23.00
2021,08,11,08,50,23.10
2021,08,11,08,51,23.10
2021,08,11,08,52,23.20
2021,08,11,08,53,23.20
2021,08,11,08,54,23.30
2021,08,11,08,55,23.40
2021,08,11,08,56,23.50
2021,08,11,08,57,23.60
2021,08,11,08,58,23.80
2021,08,11,08,59,23.80
2021,08,11,09,00,23.90
2021,08,11,09,01,24.00
2021,08,11,09,02,24.00
2021,08,11,09,03,24.10
2021,08,11,09,04,24.10
2021,08,11,09,05,24.20
2021,08,11,09,06,24.20
2021,08,11,09,07,24.20
2021,08,11,09,08,24.30
2021,08,11,09,09,24.30
2021,08,11,09,10,24.30
2021,08,11,09,11,24.30
2021,08,11,09,12,24.10
2021,08,11,09,13,24.10
2021,08,11,09,14,24.00
2021,08,11,09,15,23.90
2021,08,11,09,16,23.90
2021,08,11,09,17,23.80
2021,08,11,09,18,23.80
2021,08,11,09,19,23.90
2021,08,11,09,20,23.90
2021,08,11,09,21,23.90
2021,08,11,09,22,24.00
2021,08,11,09,23,24.10
2021,08,11,09,24,24.10
2021,08,11,09,25,24.20
2021,08,11,09,26,24.20
2021,08,11,09,27,24.20
2021,08,11,09,28,24.20
2021,08,11,09,29,24.20
2021,08,11,09,30,24.20
2021,08,11,09,31,24.10
2021,08,11,09,32,24.10
2021,08,11,09,33,24.10
2021,08,11,09,34,24.10
2021,08,11,09,35,24.10
2021,08,11,09,36,24.20
2021,08,11,09,37,24.20
2021,08,11,09,38,24.20
2021,08,11,09,39,24.30
2021,08,11,09,40,24.30
2021,08,11,09,41,24.40
2021,08,11,09,42,24.50
2021,08,11,09,43,24.60
2021,08,11,09,44,24.70
2021,08,11,09,45,24.80
2021,08,11,09,46,24.80
2021,08,11,09,47,24.90
2021,08,11,09,48,25.00
2021,08,11,09,49,25.10
2021,08,11,09,50,25.20
2021,08,11,09,51,25.30
2021,08,11,09,52,25.40
2021,08,11,09,53,25.40
2021,08,11,09,54,25.50
2021,08,11,09,55,25.50
2021,08,11,09,56,25.50
2021,08,11,09,57,25.60
2021,08,11,09,58,25.70
2021,08,11,09,59,25.80
2021,08,11,10,00,25.90
2021,08,11,10,01,25.90
2021,08,11,10,02,25.90
2021,08,11,10,03,25.90
2021,08,11,10,04,25.90
2021,08,11,10,05,25.90
2021,08,11,10,06,26.00
2021,08,11,10,07,25.90
2021,08,11,10,08,25.90
2021,08,11,10,09,25.90
2021,08,11,10,10,25.90
2021,08,11,10,11,25.90
2021,08,11,10,12,25.90
2021,08,11,10,13,25.90
2021,08,11,10,14,25.90
2021,08,11,10,15,25.90
2021,08,11,10,16,25.80
2021,08,11,10,17,25.80
2021,08,11,10,18,25.80
2021,08,11,10,19,25.70
2021,08,11,10,20,25.70
2021,08,11,10,21,25.70
2021,08,11,10,22,25.70
2021,08,11,10,23,25.70
2021,08,11,10,24,25.80
2021,08,11,10,25,25.90
2021,08,11,10,26,26.00
2021,08,11,10,27,26.10
2021,08,11,10,28,26.10
2021,08,11,10,29,26.10
2021,08,11,10,30,26.10
2021,08,11,10,31,26.10
2021,08,11,10,32,26.10
2021,08,11,10,33,26.10
2021,08,11,10,34,26.10
2021,08,11,10,35,26.20
2021,08,11,10,36,26.20
2021,08,11,10,37,26.30
2021,08,11,10,38,26.30
2021,08,11,10,39,26.30
2021,08,11,10,40,26.30
2021,08,11,10,41,26.20
2021,08,11,10,42,26.20
2021,08,11,10,43,26.30
2021,08,11,10,44,26.40
2021,08,11,10,45,26.40
2021,08,11,10,46,26.40
2021,08,11,10,47,26.40
2021,08,11,10,48,26.30
2021,08,11,10,49,26.30
2021,08,11,10,50,26.20
2021,08,11,10,51,26.20
2021,08,11,10,52,26.20
2021,08,11,10,53,26.20
2021,08,11,10,54,26.20
2021,08,11,10,55,26.30
2021,08,11,10,56,26.30
2021,08,11,10,57,26.30
2021,08,11,10,58,26.30
2021,08,11,10,59,26.30
2021,08,11,11,00,26.30
2021,08,11,11,01,26.30
2021,08,11,11,02,26.40
2021,08,11,11,03,26.40
2021,08,11,11,04,26.50
2021,08,11,11,05,26.70
2021,08,11,11,06,26.80
2021,08,11,11,07,26.90
2021,08,11,11,08,27.00
2021,08,11,11,09,27.10
2021,08,11,11,10,27.20
2021,08,11,11,11,27.30
2021,08,11,11,12,27.30
2021,08,11,11,13,27.20
2021,08,11,11,14,27.20
2021,08,11,11,15,27.30
2021,08,11,11,16,27.30
2021,08,11,11,17,27.30
2021,08,11,11,18,27.20
2021,08,11,11,19,27.20
2021,08,11,11,20,27.20
2021,08,11,11,21,27.20
2021,08,11,11,22,27.20
2021,08,11,11,23,27.20
2021,08,11,11,24,27.30
2021,08,11,11,25,27.30
2021,08,11,11,26,27.40
2021,08,11,11,27,27.40
2021,08,11,11,28,27.40
2021,08,11,11,29,27.40
2021,08,11,11,30,27.40
2021,08,11,11,31,27.40
2021,08,11,11,32,27.40
2021,08,11,11,33,27.50
2021,08,11,11,34,27.50
2021,08,11,11,35,27.40
2021,08,11,11,36,27.50
2021,08,11,11,37,27.60
2021,08,11,11,38,27.60
2021,08,11,11,39,27.60
2021,08,11,11,40,27.70
2021,08,11,11,41,27.80
2021,08,11,11,42,27.80
2021,08,11,11,43,27.80
2021,08,11,11,44,27.80
2021,08,11,11,45,27.80
2021,08,11,11,46,27.70
2021,08,11,11,47,27.60
2021,08,11,11,48,27.60
2021,08,11,11,49,27.50
2021,08,11,11,50,27.40
2021,08,11,11,51,27.40
2021,08,11,11,52,27.30
2021,08,11,11,53,27.30
2021,08,11,11,54,27.30
2021,08,11,11,55,27.30
2021,08,11,11,56,27.30
2021,08,11,11,57,27.20
2021,08,11,11,58,27.20
2021,08,11,11,59,27.30
2021,08,11,12,00,27.40
2021,08,11,12,01,27.50
2021,08,11,12,02,27.50
2021,08,11,12,03,27.60
2021,08,11,12,04,27.60
2021,08,11,12,05,27.60
2021,08,11,12,06,27.60
2021,08,11,12,07,27.60
2021,08,11,12,08,27.60
2021,08,11,12,09,27.60
2021,08,11,12,10,27.60
2021,08,11,12,11,27.50
2021,08,11,12,12,27.40
2021,08,11,12,13,27.40
2021,08,11,12,14,27.30
2021,08,11,12,15,27.30
2021,08,11,12,16,27.40
2021,08,11,12,17,27.50
2021,08,11,12,18,27.50
2021,08,11,12,19,27.60
2021,08,11,12,20,27.70
2021,08,11,12,21,27.70
2021,08,11,12,22,27.80
2021,08,11,12,23,27.80
2021,08,11,12,24,27.90
2021,08,11,12,25,28.00
2021,08,11,12,26,28.00
2021,08,11,12,27,28.00
2021,08,11,12,28,28.10
2021,08,11,12,29,28.10
2021,08,11,12,30,28.20
2021,08,11,12,31,28.10
2021,08,11,12,32,28.00
2021,08,11,12,33,28.00
2021,08,11,12,34,27.90
2021,08,11,12,35,27.80
2021,08,11,12,36,27.80
2021,08,11,12,37,27.80
2021,08,11,12,38,27.90
2021,08,11,12,39,27.90
2021,08,11,12,40,28.00
2021,08,11,12,41,28.00
2021,08,11,12,42,28.00
2021,08,11,12,43,28.00
2021,08,11,12,44,28.00
2021,08,11,12,45,28.10
2021,08,11,12,46,28.20
2021,08,11,12,47,28.30
2021,08,11,12,48,28.30
2021,08,11,12,49,28.20
2021,08,11,12,50,28.20
2021,08,11,12,51,28.10
2021,08,11,12,52,28.00
2021,08,11,12,53,27.90
2021,08,11,12,54,27.90
2021,08,11,12,55,27.90
2021,08,11,12,56,27.90
2021,08,11,12,57,27.90
2021,08,11,12,58,27.80
2021,08,11,12,59,27.80
2021,08,11,13,00,27.70
2021,08,11,13,01,27.80
2021,08,11,13,02,27.80
2021,08,11,13,03,27.90
2021,08,11,13,04,28.00
2021,08,11,13,05,28.10
2021,08,11,13,06,28.10
2021,08,11,13,07,28.10
2021,08,11,13,08,28.10
2021,08,11,13,09,28.10
2021,08,11,13,10,28.00
2021,08,11,13,11,28.00
2021,08,11,13,12,28.00
2021,08,11,13,13,28.10
2021,08,11,13,14,28.10
2021,08,11,13,15,28.20
2021,08,11,13,16,28.20
2021,08,11,13,17,28.30
2021,08,11,13,18,28.40
2021,08,11,13,19,28.40
2021,08,11,13,20,28.40
2021,08,11,13,21,28.40
2021,08,11,13,22,28.40
2021,08,11,13,23,28.40
2021,08,11,13,24,28.40
2021,08,11,13,25,28.40
2021,08,11,13,26,28.40
2021,08,11,13,27,28.40
2021,08,11,13,28,28.50
2021,08,11,13,29,28.50
2021,08,11,13,30,28.50
2021,08,11,13,31,28.50
2021,08,11,13,32,28.40
2021,08,11,13,33,28.40
2021,08,11,13,34,28.40
2021,08,11,13,35,28.40
2021,08,11,13,36,28.50
2021,08,11,13,37,28.50
2021,08,11,13,38,28.40
2021,08,11,13,39,28.40
2021,08,11,13,40,28.50
2021,08,11,13,41,28.50
2021,08,11,13,42,28.60
2021,08,11,13,43,28.70
2021,08,11,13,44,28.80
2021,08,11,13,45,28.90
2021,08,11,13,46,29.00
2021,08,11,13,47,29.00
2021,08,11,13,48,29.10
2021,08,11,13,49,29.10
2021,08,11,13,50,29.10
2021,08,11,13,51,29.10
2021,08,11,13,52,29.10
2021,08,11,13,53,29.00
2021,08,11,13,54,29.00
2021,08,11,13,55,29.00
2021,08,11,13,56,29.10
2021,08,11,13,57,29.20
2021,08,11,13,58,29.20
2021,08,11,13,59,29.30
2021,08,11,14,00,29.30
2021,08,11,14,01,29.30
2021,08,11,14,02,29.30
2021,08,11,14,03,29.40
2021,08,11,14,04,29.50
2021,08,11,14,05,29.50
2021,08,11,14,06,29.60
2021,08,11,14,07,29.60
2021,08,11,14,08,29.70
2021,08,11,14,09,29.70
2021,08,11,14,10,29.70
2021,08,11,14,11,29.80
2021,08,11,14,12,29.80
2021,08,11,14,13,29.80
2021,08,11,14,14,29.80
2021,08,11,14,15,29.80
2021,08,11,14,16,29.80
2021,08,11,14,17,29.80
2021,08,11,14,18,29.80
2021,08,11,14,19,29.80
2021,08,11,14,20,29.80
2021,08,11,14,21,29.80
2021,08,11,14,22,29.80
2021,08,11,14,23,29.90
2021,08,11,14,24,29.90
2021,08,11,14,25,29.80
2021,08,11,14,26,29.80
2021,08,11,14,27,29.80
2021,08,11,14,28,29.80
2021,08,11,14,29,29.80
2021,08,11,14,30,29.80
2021,08,11,14,31,29.80
2021,08,11,14,32,29.80
2021,08,11,14,33,29.90
2021,08,11,14,34,29.90
2021,08,11,14,35,29.80
2021,08,11,14,36,29.80
2021,08,11,14,37,29.70
2021,08,11,14,38,29.70
2021,08,11,14,39,29.70
2021,08,11,14,40,29.70
2021,08,11,14,41,29.70
2021,08,11,14,42,29.80
2021,08,11,14,43,29.80
2021,08,11,14,44,29.80
2021,08,11,14,45,29.80
2021,08,11,14,46,29.80
2021,08,11,14,47,29.90
2021,08,11,14,48,30.00
2021,08,11,14,49,30.00
2021,08,11,14,50,30.10
2021,08,11,14,51,30.10
2021,08,11,14,52,30.20
2021,08,11,14,53,30.20
2021,08,11,14,54,30.30
2021,08,11,14,55,30.30
2021,08,11,14,56,30.30
2021,08,11,14,57,30.40
2021,08,11,14,58,30.40
2021,08,11,14,59,30.40
2021,08,11,15,00,30.40
2021,08,11,15,01,30.40
2021,08,11,15,02,30.30
2021,08,11,15,03,30.40
2021,08,11,15,04,30.40
2021,08,11,15,05,30.40
2021,08,11,15,06,30.50
2021,08,11,15,07,30.60
2021,08,11,15,08,30.70
2021,08,11,15,09,30.70
2021,08,11,15,10,30.70
2021,08,11,15,11,30.70
2021,08,11,15,12,30.70
2021,08,11,15,13,30.60
2021,08,11,15,14,30.60
2021,08,11,15,15,30.70
2021,08,11,15,16,30.70
2021,08,11,15,17,30.60
2021,08,11,15,18,30.60
2021,08,11,15,19,30.60
2021,08,11,15,20,30.60
2021,08,11,15,21,30.60
2021,08,11,15,22,30.60
2021,08,11,15,23,30.60
2021,08,11,15,24,30.50
2021,08,11,15,25,30.40
2021,08,11,15,26,30.20
2021,08,11,15,27,30.10
2021,08,11,15,28,30.00
2021,08,11,15,29,29.90
2021,08,11,15,30,29.90
2021,08,11,15,31,29.80
2021,08,11,15,32,29.80
2021,08,11,15,33,29.80
2021,08,11,15,34,29.80
2021,08,11,15,35,29.80
2021,08,11,15,36,29.80
2021,08,11,15,37,29.80
2021,08,11,15,38,29.90
2021,08,11,15,39,30.00
2021,08,11,15,40,30.00
2021,08,11,15,41,30.10
2021,08,11,15,42,30.20
2021,08,11,15,43,30.30
2021,08,11,15,44,30.40
2021,08,11,15,45,30.30
2021,08,11,15,46,30.30
2021,08,11,15,47,30.30
2021,08,11,15,48,30.30
2021,08,11,15,49,30.30
2021,08,11,15,50,30.30
2021,08,11,15,51,30.40
2021,08,11,15,52,30.50
2021,08,11,15,53,30.50
2021,08,11,15,54,30.60
2021,08,11,15,55,30.60
2021,08,11,15,56,30.70
2021,08,11,15,57,30.70
2021,08,11,15,58,30.70
2021,08,11,15,59,30.80
2021,08,11,16,00,30.90
2021,08,11,16,01,31.00
2021,08,11,16,02,31.10
2021,08,11,16,03,31.10
2021,08,11,16,04,31.10
2021,08,11,16,05,31.10
2021,08,11,16,06,31.00
2021,08,11,16,07,31.00
2021,08,11,16,08,30.90
2021,08,11,16,09,30.80
2021,08,11,16,10,30.70
2021,08,11,16,11,30.50
2021,08,11,16,12,30.50
2021,08,11,16,13,30.40
2021,08,11,16,14,30.40
2021,08,11,16,15,30.40
2021,08,11,16,16,30.40
2021,08,11,16,17,30.40
2021,08,11,16,18,30.40
2021,08,11,16,19,30.40
2021,08,11,16,20,30.40
2021,08,11,16,21,30.50
2021,08,11,16,22,30.50
2021,08,11,16,23,30.60
2021,08,11,16,24,30.70
2021,08,11,16,25,30.80
2021,08,11,16,26,30.90
2021,08,11,16,27,30.90
2021,08,11,16,28,30.90
2021,08,11,16,29,31.00
2021,08,11,16,30,31.00
2021,08,11,16,31,31.00
2021,08,11,16,32,31.00
2021,08,11,16,33,30.90
2021,08,11,16,34,30.80
2021,08,11,16,35,30.70
2021,08,11,16,36,30.70
2021,08,11,16,37,30.60
2021,08,11,16,38,30.60
2021,08,11,16,39,30.60
2021,08,11,16,40,30.50
2021,08,11,16,41,30.50
2021,08,11,16,42,30.50
2021,08,11,16,43,30.50
2021,08,11,16,44,30.50
2021,08,11,16,45,30.50
2021,08,11,16,46,30.40
2021,08,11,16,47,30.40
2021,08,11,16,48,30.40
2021,08,11,16,49,30.30
2021,08,11,16,50,30.30
2021,08,11,16,51,30.20
2021,08,11,16,52,30.20
2021,08,11,16,53,30.10
2021,08,11,16,54,30.10
2021,08,11,16,55,30.00
2021,08,11,16,56,29.90
2021,08,11,16,57,29.80
2021,08,11,16,58,29.80
2021,08,11,16,59,29.80
2021,08,11,17,00,29.70
2021,08,11,17,01,29.70
2021,08,11,17,02,29.70
2021,08,11,17,03,29.70
2021,08,11,17,04,29.70
2021,08,11,17,05,29.60
2021,08,11,17,06,29.70
2021,08,11,17,07,29.70
2021,08,11,17,08,29.70
2021,08,11,17,09,29.70
2021,08,11,17,10,29.70
2021,08,11,17,11,29.70
2021,08,11,17,12,29.70
2021,08,11,17,13,29.70
2021,08,11,17,14,29.70
2021,08,11,17,15,29.70
2021,08,11,17,16,29.70
2021,08,11,17,17,29.70
2021,08,11,17,18,29.70
2021,08,11,17,19,29.70